• In Belarus
  • List of Countries
  • For 7 days
  • Water Temperature
  • Satellite Maps
  • Weather Map
  • Weather Widgets
  • user-avatar
    Login

    Hourly Weather Al-Budajji

    Today, 24 March, Sunday

    Time Temperature Precipitation Wind Pressure Humidity
    00:00 +23°C° 0 mm 13 mps 760 mmHg 79%
    01:00 +23°C° 0 mm 13 mps 760 mmHg 80%
    02:00 +23°C° 0 mm 12 mps 759 mmHg 81%
    03:00 +22°C° 0 mm 11 mps 759 mmHg 83%
    04:00 +22°C° 0 mm 9 mps 759 mmHg 87%
    05:00 +22°C° 0 mm 10 mps 759 mmHg 87%
    06:00 +22°C° 0 mm 10 mps 759 mmHg 87%
    07:00 +22°C° 0 mm 10 mps 760 mmHg 87%
    08:00 +22°C° 0 mm 10 mps 760 mmHg 87%
    09:00 +22°C° 0 mm 11 mps 760 mmHg 87%
    10:00 +22°C° 0 mm 11 mps 761 mmHg 86%
    11:00 +22°C° 0 mm 11 mps 760 mmHg 86%
    12:00 +22°C° 0 mm 10 mps 760 mmHg 86%
    13:00 +23°C° 0 mm 9 mps 760 mmHg 85%
    14:00 +23°C° 0 mm 8 mps 759 mmHg 85%
    15:00 +23°C° 0 mm 8 mps 759 mmHg 85%
    16:00 +23°C° 0 mm 7 mps 758 mmHg 85%
    17:00 +23°C° 0 mm 7 mps 758 mmHg 85%
    18:00 +23°C° 0 mm 7 mps 758 mmHg 84%
    19:00 +23°C° 0 mm 7 mps 758 mmHg 84%
    20:00 +23°C° 0 mm 8 mps 758 mmHg 83%
    21:00 +23°C° 0 mm 9 mps 758 mmHg 81%
    22:00 +23°C° 0 mm 10 mps 758 mmHg 79%
    23:00 +23°C° 0 mm 10 mps 758 mmHg 79%

    Tomorrow, 25 March, Monday

    Time Temperature Precipitation Wind Pressure Humidity
    00:00 +23°C° 0 mm 11 mps 758 mmHg 79%
    01:00 +23°C° 0 mm 12 mps 758 mmHg 79%
    02:00 +23°C° 0 mm 11 mps 757 mmHg 80%
    03:00 +23°C° 0 mm 11 mps 757 mmHg 80%
    04:00 +23°C° 0 mm 11 mps 757 mmHg 81%
    05:00 +23°C° 0 mm 11 mps 758 mmHg 82%
    06:00 +23°C° 0 mm 11 mps 758 mmHg 83%
    07:00 +23°C° 0 mm 11 mps 758 mmHg 83%
    08:00 +23°C° 0 mm 10 mps 759 mmHg 84%
    09:00 +23°C° 0 mm 9 mps 760 mmHg 84%
    10:00 +23°C° 0 mm 8 mps 761 mmHg 84%
    11:00 +23°C° 0.2 mm 9 mps 760 mmHg 84%
    12:00 +23°C° 0.2 mm 10 mps 760 mmHg 84%
    13:00 +23°C° 0.2 mm 11 mps 760 mmHg 83%
    14:00 +23°C° 0.2 mm 11 mps 759 mmHg 84%
    15:00 +23°C° 0.2 mm 10 mps 759 mmHg 84%
    16:00 +23°C° 0.2 mm 10 mps 758 mmHg 85%
    17:00 +23°C° 0.1 mm 11 mps 758 mmHg 82%
    18:00 +23°C° 0.1 mm 11 mps 758 mmHg 80%
    19:00 +23°C° 0.1 mm 12 mps 758 mmHg 77%
    20:00 +24°C° 0 mm 12 mps 758 mmHg 77%
    21:00 +24°C° 0 mm 13 mps 758 mmHg 76%
    22:00 +24°C° 0 mm 14 mps 758 mmHg 75%
    23:00 +24°C° 0 mm 13 mps 758 mmHg 75%

    Day after tomorrow, 26 March, Tuesday

    Time Temperature Precipitation Wind Pressure Humidity
    00:00 +24°C° 0 mm 13 mps 758 mmHg 75%
    01:00 +24°C° 0 mm 12 mps 758 mmHg 74%
    02:00 +24°C° 0 mm 12 mps 758 mmHg 76%
    03:00 +23°C° 0 mm 12 mps 758 mmHg 77%
    04:00 +23°C° 0 mm 12 mps 758 mmHg 79%
    05:00 +23°C° 0.1 mm 12 mps 759 mmHg 80%
    06:00 +23°C° 0.1 mm 13 mps 759 mmHg 81%
    07:00 +23°C° 0.1 mm 13 mps 759 mmHg 82%
    08:00 +23°C° 0 mm 14 mps 760 mmHg 80%
    09:00 +23°C° 0 mm 14 mps 760 mmHg 77%
    10:00 +24°C° 0 mm 15 mps 760 mmHg 75%
    11:00 +24°C° 0.2 mm 14 mps 760 mmHg 74%
    12:00 +24°C° 0.2 mm 13 mps 760 mmHg 73%
    13:00 +24°C° 0.2 mm 12 mps 760 mmHg 73%
    14:00 +24°C° 0.1 mm 10 mps 760 mmHg 74%
    15:00 +23°C° 0.1 mm 9 mps 760 mmHg 75%
    16:00 +23°C° 0.1 mm 7 mps 759 mmHg 77%
    17:00 +23°C° 0 mm 7 mps 760 mmHg 78%
    18:00 +23°C° 0 mm 6 mps 760 mmHg 80%
    19:00 +23°C° 0 mm 6 mps 760 mmHg 81%
    20:00 +23°C° 0.4 mm 6 mps 761 mmHg 81%
    21:00 +23°C° 0.4 mm 7 mps 762 mmHg 81%
    22:00 +23°C° 0.4 mm 7 mps 762 mmHg 82%
    23:00 +23°C° 0.9 mm 7 mps 762 mmHg 82%

    27 March, Wednesday

    Time Temperature Precipitation Wind Pressure Humidity
    00:00 +22°C° 0.9 mm 6 mps 762 mmHg 83%
    01:00 +22°C° 0.9 mm 6 mps 763 mmHg 83%
    02:00 +22°C° 1.3 mm 5 mps 762 mmHg 85%
    03:00 +22°C° 1.3 mm 4 mps 762 mmHg 86%
    04:00 +22°C° 1.3 mm 3 mps 762 mmHg 88%
    05:00 +22°C° 0.5 mm 3 mps 763 mmHg 87%
    06:00 +22°C° 0.5 mm 4 mps 763 mmHg 87%
    07:00 +22°C° 0.5 mm 5 mps 764 mmHg 87%
    08:00 +22°C° 0.2 mm 5 mps 764 mmHg 86%
    09:00 +22°C° 0.2 mm 6 mps 764 mmHg 85%
    10:00 +23°C° 0.2 mm 6 mps 765 mmHg 84%
    11:00 +23°C° 0 mm 5 mps 764 mmHg 84%
    12:00 +23°C° 0 mm 5 mps 764 mmHg 85%
    13:00 +23°C° 0 mm 5 mps 764 mmHg 85%
    14:00 +23°C° 0 mm 4 mps 763 mmHg 85%
    15:00 +23°C° 0 mm 4 mps 763 mmHg 84%
    16:00 +23°C° 0 mm 4 mps 762 mmHg 84%
    17:00 +23°C° 0 mm 4 mps 763 mmHg 82%
    18:00 +23°C° 0 mm 5 mps 763 mmHg 81%
    19:00 +23°C° 0 mm 5 mps 763 mmHg 79%
    20:00 +23°C° 0 mm 5 mps 763 mmHg 80%
    21:00 +23°C° 0 mm 5 mps 764 mmHg 80%
    22:00 +23°C° 0 mm 5 mps 764 mmHg 80%
    23:00 +23°C° 0 mm 5 mps 764 mmHg 81%

    28 March, Thursday

    Time Temperature Precipitation Wind Pressure Humidity
    00:00 +23°C° 0 mm 5 mps 763 mmHg 81%
    01:00 +23°C° 0 mm 5 mps 763 mmHg 82%
    02:00 +23°C° 0 mm 5 mps 763 mmHg 82%
    03:00 +22°C° 0 mm 5 mps 762 mmHg 83%
    04:00 +22°C° 0 mm 5 mps 762 mmHg 83%
    05:00 +23°C° 0 mm 5 mps 762 mmHg 80%
    06:00 +23°C° 0 mm 5 mps 762 mmHg 78%
    07:00 +23°C° 0 mm 5 mps 763 mmHg 76%
    08:00 +23°C° 0.1 mm 5 mps 763 mmHg 77%
    09:00 +23°C° 0.1 mm 4 mps 763 mmHg 79%
    10:00 +23°C° 0.1 mm 4 mps 764 mmHg 81%
    11:00 +23°C° 0.1 mm 4 mps 763 mmHg 81%
    12:00 +24°C° 0.1 mm 3 mps 763 mmHg 80%
    13:00 +25°C° 0.1 mm 3 mps 762 mmHg 80%
    14:00 +25°C° 0 mm 4 mps 762 mmHg 80%
    15:00 +25°C° 0 mm 4 mps 761 mmHg 80%
    16:00 +25°C° 0 mm 4 mps 761 mmHg 80%
    17:00 +25°C° 0 mm 5 mps 761 mmHg 79%
    18:00 +25°C° 0 mm 5 mps 761 mmHg 79%
    19:00 +25°C° 0 mm 5 mps 762 mmHg 78%
    20:00 +25°C° 0 mm 5 mps 762 mmHg 78%
    21:00 +23°C° 0 mm 5 mps 763 mmHg 79%
    22:00 +23°C° 0 mm 5 mps 763 mmHg 79%
    23:00 +23°C° 0 mm 5 mps 763 mmHg 78%

    29 March, Friday

    Time Temperature Precipitation Wind Pressure Humidity
    00:00 +23°C° 0 mm 5 mps 762 mmHg 77%
    01:00 +23°C° 0 mm 4 mps 762 mmHg 76%
    02:00 +23°C° 0 mm 4 mps 762 mmHg 76%
    03:00 +23°C° 0 mm 4 mps 762 mmHg 75%
    04:00 +23°C° 0 mm 4 mps 762 mmHg 75%
    05:00 +23°C° 0 mm 4 mps 762 mmHg 75%
    06:00 +23°C° 0 mm 4 mps 762 mmHg 75%
    07:00 +23°C° 0 mm 5 mps 763 mmHg 75%
    08:00 +23°C° 0 mm 4 mps 763 mmHg 74%
    09:00 +23°C° 0 mm 4 mps 764 mmHg 72%
    10:00 +23°C° 0 mm 4 mps 764 mmHg 70%
    11:00 +23°C° 0 mm 4 mps 764 mmHg 69%
    12:00 +25°C° 0 mm 3 mps 763 mmHg 68%
    13:00 +25°C° 0 mm 3 mps 763 mmHg 67%
    14:00 +25°C° 0 mm 3 mps 763 mmHg 66%
    15:00 +25°C° 0 mm 3 mps 762 mmHg 65%
    16:00 +25°C° 0 mm 3 mps 762 mmHg 65%
    17:00 +25°C° 0 mm 3 mps 762 mmHg 64%
    18:00 +25°C° 0 mm 3 mps 762 mmHg 63%
    19:00 +25°C° 0 mm 3 mps 762 mmHg 62%
    20:00 +25°C° 0 mm 4 mps 763 mmHg 62%
    21:00 +23°C° 0 mm 4 mps 763 mmHg 63%
    22:00 +23°C° 0 mm 4 mps 763 mmHg 63%
    23:00 +23°C° 0 mm 4 mps 763 mmHg 63%
    Show more